[Iaude] MPEC K47: 2017 BO236 [a=41.20,e=0.08,i=29.8,H=9.22]
    mpec at cfa.harvard.edu 
    mpec at cfa.harvard.edu
       
    Thu May 23 11:52:18 EDT 2024
    
    
  
M.P.E.C. 2024-K47                                  Issued 2024 May 23, 15:50 UT
     The Minor Planet Electronic Circulars contain information on unusual
         minor planets, routine data on comets and natural satellites,
         and occasional editorial announcements.  They are published
    on behalf of Division F of the International Astronomical Union by the
          Minor Planet Center, Smithsonian Astrophysical Observatory,
                          Cambridge, MA 02138, U.S.A.
			  
             Prepared using the Tamkin Foundation Computer Network
                              MPC at CFA.HARVARD.EDU
            URL https://www.minorplanetcenter.net/    ISSN 1523-6714
                                   2017 BO236                                   
Additional Observations:
     K17BN6O 1C2017 03 22.28380509 54 24.58 +01 37 58.9                WEK047T09
     K17BN6O 1C2017 03 22.33526309 54 24.39 +01 38 00.5                WEK047T09
     K17BN6O 1C2017 03 22.35006809 54 24.31 +01 38 00.7                WEK047T09
     K17BN6O 4C2018 01 17.48065 10 02 20.00 +00 24 19.4          25.2 i1EK047T09
     K17BN6O 4C2018 01 17.50762 10 02 19.87 +00 24 19.6          25.7 i1EK047T09
     K17BN6O 4C2018 01 17.53731 10 02 19.77 +00 24 19.9          26.0 i1EK047T09
     K17BN6O 1C2018 04 13.35826509 56 29.86 +00 51 27.0                WEK047T09
     K17BN6O 1C2018 04 13.36903709 56 29.84 +00 51 27.1                WEK047T09
Observer details:
T09 Subaru Telescope, Maunakea.  Observers , H. Aihara, Y. AlSayyad, M. Ando,
    R. Armstrong, J. Bosch, E. Egami, H. Furusawa, J. Furusawa, S. Harasawa,
    Y. Harikane, B.-C. Hsieh, H. Ikeda, K. Ito, I. Iwata, T. Kodama, M. Koike,
    M. Kokubo, Y. Komiyama, X. Li, Y. Liang, Y.-T. Lin, R. H. Lupton, N. B.
    Lust, L. A. MacArthur, K. Mawatari, S. Mineo, H. Miyatake, S. Miyazaki, S.
    More, T. Morishima, H. Murayama, K. Nakajima, F. Nakata, A. J. Nishizawa,
    M. Oguri, N. Okabe, Y. Okura, Y. Ono, K. Osato, M. Ouchi, Y.-C. Pan, A. A.
    Plazas Malagon, P. A. Price, S. L. Reed, E. S. Rykoff, T. Shibuya, M.
    Simunovic, M. A. Strauss, K. Sugimori, Y. Suto, N. Suzuki, M. Takada, Y.
    Takagi, T. Takata, S. Takita, M. Tanaka, S. Tang, D. S. Taranu, T. Terai,
    Y. Toba, E. L. Turner, H. Uchiyama, B. Vijarnwannaluk, C. Z. Waters, Y.
    Yamada, N. Yamamoto, T. Yamashita.  Measurers S. Deen, A. Yamauchi.  8.3-m
    Subaru Telescope + CCD, 8.2-m f/2.0 reflector + CCD(HSC).
Orbital elements:
2017 BO236                                                                      
Epoch 2024 Mar. 31.0 TT = JDT 2460400.5                 Alexandersen            
M 151.66452              (2000.0)            P               Q                  
n   0.00372724     Peri.   53.46422     +0.91619306     -0.16186305             
a  41.1981653      Node   312.49197     -0.12959248     +0.74597012             
e   0.0826881      Incl.   29.81241     +0.37920451     +0.64601002             
P 264              H    9.22          G   0.15           U   7                  
Residuals in seconds of arc
170121 T09  0.2-  0.0     170123 T09  0.0   0.0     170322 T09  0.0   0.4-
170121 T09  0.0   0.1-    170130 T09  0.2+  0.1-    170322 T09  0.1+  0.0
170121 T09  0.3+  0.3+    170130 T09  0.1-  0.1-    170322 T09  0.3-  0.1-
170123 T09  0.2-  0.1+    170130 T09  0.1-  0.2-    180117 T09  0.2+  0.0
170123 T09  0.2+  0.0     170130 T09  0.1+  0.1+    180117 T09  0.2-  0.0
170123 T09  0.1-  0.2+    170130 T09  0.1-  0.2+    180117 T09  0.1+  0.2+
170123 T09  0.1-  0.0     170130 T09  0.2+  0.1-    180413 T09  0.1-  0.0
170123 T09  0.0   0.1+    170130 T09  0.3+  0.0     180413 T09  0.0   0.1-
Ephemeris:
2017 BO236               a,e,i = 41.20, 0.08, 30                 q = 37.7916
Date    TT    R. A. (2000) Decl.     Delta      r    Elong.  Phase     V
2024 04 23    10 15 10.1 -04 27 53  43.6978 44.2558   123.2     1.1    25.8
...
2024 05 08    10 14 49.3 -04 22 34  43.9173 44.2571   109.1     1.2    25.8
...
2024 05 16    10 14 45.9 -04 20 18  44.0442 44.2579   101.6     1.3    25.8
...
2024 05 22    10 14 46.8 -04 18 53  44.1419 44.2584    96.0     1.3    25.9
2024 05 23    10 14 47.3 -04 18 41  44.1583 44.2585    95.0     1.3    25.9
2024 05 24    10 14 47.8 -04 18 29  44.1747 44.2586    94.1     1.3    25.9
...
2024 05 30    10 14 52.7 -04 17 27  44.2736 44.2591    88.5     1.3    25.9
...
2024 06 07    10 15 03.9 -04 16 33  44.4050 44.2599    81.1     1.3    25.9
...
2024 06 22    10 15 38.4 -04 16 26  44.6418 44.2612    67.4     1.2    25.9
M. P. C. Staff               (C) Copyright 2024 MPC           M.P.E.C. 2024-K47
    
    
More information about the Iaude
mailing list